| time (UTC) | temp F | wind direction | speed knots | gust knots | rain 1hr in | rain 24hr in | rain mn in | humidity % | barometer mb |
| 20260510161047 | 75 | 68 | 0.0 | 1.7 | 0.00 | 0.00 | 0.00 | 47 | 1005.9 |
| 20260510160104 | 74 | 0.0 | 1.7 | 0.00 | 0.00 | 0.00 | 47 | 1006.1 | |
| 20260510155041 | 74 | 0.0 | 0.9 | 0.00 | 0.00 | 0.00 | 48 | 1006.2 | |
| 20260510154037 | 74 | 45 | 0.0 | 1.7 | 0.00 | 0.00 | 0.00 | 49 | 1006.4 |
| 20260510153034 | 75 | 45 | 0.0 | 1.7 | 0.00 | 0.00 | 0.00 | 48 | 1006.6 |
| 20260510152031 | 75 | 75 | 0.9 | 2.6 | 0.00 | 0.00 | 0.00 | 48 | 1006.7 |
| 20260510151058 | 75 | 0.0 | 1.7 | 0.00 | 0.00 | 0.00 | 50 | 1006.7 | |
| 20260510150025 | 74 | 180 | 0.0 | 1.7 | 0.00 | 0.00 | 0.00 | 50 | 1006.7 |
| 20260510145022 | 73 | 0.0 | 0.0 | 0.00 | 0.00 | 0.00 | 54 | 1007.0 | |
| 20260510144019 | 74 | 0.0 | 0.0 | 0.00 | 0.00 | 0.00 | 55 | 1007.1 | |
| 20260510143015 | 75 | 257 | 0.0 | 3.5 | 0.00 | 0.00 | 0.00 | 52 | 1007.2 |
| 20260510142112 | 75 | 122 | 0.0 | 2.6 | 0.00 | 0.00 | 0.00 | 51 | 1007.3 |
| 20260510140106 | 73 | 270 | 0.0 | 2.6 | 0.00 | 0.00 | 0.00 | 56 | 1007.6 |
| 20260510135103 | 74 | 180 | 0.9 | 2.6 | 0.00 | 0.00 | 0.00 | 54 | 1007.7 |
| 20260510134100 | 74 | 0.0 | 1.7 | 0.00 | 0.00 | 0.00 | 53 | 1007.8 | |
| 20260510133057 | 75 | 90 | 0.0 | 2.6 | 0.00 | 0.00 | 0.00 | 53 | 1007.9 |
| 20260510132054 | 76 | 270 | 0.0 | 1.7 | 0.00 | 0.00 | 0.00 | 51 | 1008.0 |
| 20260510131050 | 76 | 66 | 0.0 | 2.6 | 0.00 | 0.00 | 0.00 | 49 | 1008.1 |
| 20260510125204 | 75 | 90 | 0.0 | 2.6 | 0.00 | 0.00 | 0.00 | 52 | 1008.4 |
| 20260510124101 | 74 | 0 | 0.0 | 1.7 | 0.00 | 0.00 | 0.00 | 56 | 1008.7 |
| 20260510123038 | 73 | 186 | 0.0 | 2.6 | 0.00 | 0.00 | 0.00 | 55 | 1008.8 |
| 20260510122034 | 73 | 258 | 0.9 | 2.6 | 0.00 | 0.00 | 0.00 | 56 | 1008.9 |
| 20260510121031 | 74 | 235 | 0.0 | 3.5 | 0.00 | 0.00 | 0.00 | 54 | 1009.0 |
| 20260510114022 | 73 | 0.0 | 1.7 | 0.00 | 0.00 | 0.00 | 57 | 1009.6 | |
| 20260510113039 | 72 | 0.0 | 1.7 | 0.00 | 0.00 | 0.00 | 57 | 1009.7 | |
| 20260510112036 | 72 | 0 | 0.9 | 4.3 | 0.00 | 0.00 | 0.00 | 59 | 1009.7 |
| 20260510111112 | 72 | 270 | 0.0 | 2.6 | 0.00 | 0.00 | 0.00 | 61 | 1009.8 |
| 20260510110113 | 71 | 180 | 0.9 | 1.7 | 0.00 | 0.00 | 0.00 | 63 | 1009.9 |
| 20260510105106 | 71 | 90 | 0.0 | 1.7 | 0.00 | 0.00 | 0.00 | 61 | 1010.0 |
| 20260510104144 | 70 | 225 | 0.9 | 2.6 | 0.00 | 0.00 | 0.00 | 66 | 1010.2 |
| 20260510103120 | 70 | 180 | 0.0 | 2.6 | 0.00 | 0.00 | 0.00 | 64 | 1010.2 |
| 20260510100110 | 68 | 188 | 0.9 | 3.5 | 0.00 | 0.00 | 0.00 | 67 | 1010.5 |
| 20260510095047 | 68 | 90 | 0.0 | 1.7 | 0.00 | 0.00 | 0.00 | 66 | 1010.6 |
| 20260510094104 | 67 | 249 | 0.0 | 3.5 | 0.00 | 0.00 | 0.00 | 68 | 1010.8 |
| 20260510093041 | 66 | 180 | 0.0 | 1.7 | 0.00 | 0.00 | 0.00 | 70 | 1010.8 |
| 20260510092038 | 66 | 315 | 0.0 | 1.7 | 0.00 | 0.00 | 0.00 | 70 | 1010.8 |
| 20260510091034 | 65 | 0.0 | 0.9 | 0.00 | 0.00 | 0.00 | 71 | 1010.9 | |
| 20260510090031 | 64 | 90 | 0.0 | 1.7 | 0.00 | 0.00 | 0.00 | 72 | 1011.0 |
| 20260510085028 | 64 | 68 | 0.0 | 1.7 | 0.00 | 0.00 | 0.00 | 74 | 1011.1 |
| 20260510084025 | 63 | 0.0 | 1.7 | 0.00 | 0.00 | 0.00 | 73 | 1011.3 | |
| 20260510083022 | 62 | 45 | 0.0 | 2.6 | 0.00 | 0.00 | 0.00 | 74 | 1011.3 |
| 20260510082018 | 62 | 287 | 0.0 | 2.6 | 0.00 | 0.00 | 0.00 | 76 | 1011.5 |
| 20260510081015 | 61 | 68 | 0.0 | 1.7 | 0.00 | 0.00 | 0.00 | 78 | 1011.5 |
| 20260510080112 | 60 | 0.0 | 1.7 | 0.00 | 0.00 | 0.00 | 79 | 1011.6 | |
| 20260510073103 | 58 | 270 | 0.0 | 1.7 | 0.00 | 0.00 | 0.00 | 85 | 1011.8 |
| 20260510072120 | 57 | 0 | 0.0 | 1.7 | 0.00 | 0.00 | 0.00 | 86 | 1011.8 |
| 20260510071057 | 57 | 0 | 0.0 | 3.5 | 0.00 | 0.00 | 0.00 | 85 | 1011.9 |
| 20260510065050 | 56 | 0.0 | 0.9 | 0.00 | 0.00 | 0.00 | 88 | 1012.0 | |
| 20260510064047 | 55 | 0.0 | 1.7 | 0.00 | 0.00 | 0.00 | 90 | 1012.1 | |
| 20260510063044 | 54 | 0.0 | 0.9 | 0.00 | 0.00 | 0.00 | 92 | 1012.1 | |
| 20260510061038 | 54 | 0.0 | 0.9 | 0.00 | 0.00 | 0.00 | 93 | 1012.2 | |
| 20260510060055 | 53 | 0.0 | 0.0 | 0.00 | 0.00 | 0.00 | 93 | 1012.4 | |
| 20260510055032 | 52 | 0.0 | 1.7 | 0.00 | 0.00 | 0.00 | 94 | 1012.3 | |
| 20260510054031 | 51 | 0.0 | 0.0 | 0.00 | 0.00 | 0.00 | 94 | 1012.4 | |
| 20260510053025 | 50 | 0.0 | 1.7 | 0.00 | 0.00 | 0.00 | 96 | 1012.4 | |
| 20260510052023 | 50 | 0.0 | 1.7 | 0.00 | 0.00 | 0.00 | 99 | 1012.5 | |
| 20260510051019 | 50 | 0.0 | 0.0 | 0.00 | 0.00 | 0.00 | 99 | 1012.6 | |
| 20260510050016 | 49 | 0.0 | 0.0 | 0.00 | 0.00 | 0.00 | 99 | 1012.6 | |
| 20260510044110 | 48 | 0.0 | 0.0 | 0.00 | 0.00 | 0.00 | 99 | 1012.7 | |
| 20260510043127 | 48 | 0.0 | 0.0 | 0.00 | 0.00 | 0.00 | 99 | 1012.7 | |
| 20260510042104 | 48 | 0.0 | 0.0 | 0.00 | 0.00 | 0.00 | 99 | 1012.8 | |
| 20260510041101 | 47 | 0.0 | 0.0 | 0.00 | 0.00 | 0.00 | 99 | 1012.8 | |
| 20260510040057 | 47 | 0.0 | 0.0 | 0.00 | 0.00 | 0.00 | 99 | 1012.7 | |
| 20260510035114 | 46 | 0.0 | 0.0 | 0.00 | 0.00 | 0.00 | 99 | 1012.7 | |
| 20260510034110 | 46 | 0.0 | 0.0 | 0.00 | 0.00 | 0.00 | 99 | 1012.7 | |
| 20260510033047 | 47 | 0.0 | 0.0 | 0.00 | 0.00 | 0.00 | 99 | 1012.7 | |
| 20260510031041 | 47 | 0.0 | 0.0 | 0.00 | 0.00 | 0.00 | 99 | 1012.8 | |
| 20260510023028 | 48 | 0.0 | 1.7 | 0.00 | 0.00 | 0.00 | 99 | 1013.1 | |
| 20260510022025 | 48 | 0.0 | 0.0 | 0.00 | 0.00 | 0.00 | 99 | 1013.0 | |
| 20260510021022 | 48 | 0.0 | 0.0 | 0.00 | 0.00 | 0.00 | 99 | 1013.1 | |
| 20260510020019 | 48 | 0.0 | 0.0 | 0.00 | 0.00 | 0.00 | 99 | 1013.1 | |
| 20260510014113 | 47 | 0.0 | 0.0 | 0.00 | 0.00 | 0.00 | 99 | 1013.2 | |
| 20260510012106 | 47 | 0.0 | 0.0 | 0.00 | 0.00 | 0.00 | 99 | 1013.3 | |
| 20260510011103 | 47 | 0.0 | 0.0 | 0.00 | 0.00 | 0.00 | 99 | 1013.4 | |
| 20260510010100 | 47 | 0.0 | 0.0 | 0.00 | 0.00 | 0.00 | 99 | 1013.4 | |
| 20260510005056 | 47 | 0.0 | 0.0 | 0.00 | 0.00 | 0.00 | 99 | 1013.5 | |
| 20260510004054 | 46 | 0.0 | 0.9 | 0.00 | 0.00 | 0.00 | 99 | 1013.6 | |
| 20260510003050 | 46 | 0.0 | 0.0 | 0.00 | 0.00 | 0.00 | 99 | 1013.7 | |
| 20260510002047 | 46 | 0.0 | 0.0 | 0.00 | 0.00 | 0.00 | 99 | 1013.9 | |
| 20260510001044 | 47 | 0.0 | 0.0 | 0.00 | 0.00 | 0.00 | 99 | 1013.9 | |
| 20260510000041 | 47 | 0.0 | 0.0 | 0.00 | 0.00 | 0.00 | 99 | 1014.0 | |
| 20260509234054 | 47 | 0.0 | 0.0 | 0.00 | 0.00 | 0.00 | 99 | 1014.2 | |
| 20260509233031 | 48 | 0.0 | 0.0 | 0.00 | 0.00 | 0.00 | 99 | 1014.3 | |
| 20260509232028 | 48 | 0.0 | 0.0 | 0.00 | 0.00 | 0.00 | 99 | 1014.5 | |
| 20260509231025 | 48 | 0.0 | 0.0 | 0.00 | 0.00 | 0.00 | 99 | 1014.4 | |
| 20260509230042 | 49 | 0.0 | 0.0 | 0.00 | 0.00 | 0.00 | 99 | 1014.5 | |
| 20260509224015 | 49 | 0.0 | 0.0 | 0.00 | 0.00 | 0.00 | 99 | 1014.7 | |
| 20260509223112 | 49 | 0.0 | 0.0 | 0.00 | 0.00 | 0.00 | 99 | 1014.5 | |
| 20260509222129 | 49 | 0.0 | 0.0 | 0.00 | 0.00 | 0.00 | 99 | 1014.6 | |
| 20260509221106 | 49 | 0.0 | 0.0 | 0.00 | 0.00 | 0.00 | 98 | 1014.8 | |
| 20260509215120 | 50 | 0.0 | 0.0 | 0.00 | 0.00 | 0.00 | 98 | 1014.7 | |
| 20260509214057 | 50 | 0.0 | 0.0 | 0.00 | 0.00 | 0.00 | 98 | 1014.7 | |
| 20260509213054 | 50 | 0.0 | 0.0 | 0.00 | 0.00 | 0.00 | 98 | 1014.6 | |
| 20260509212050 | 51 | 0.0 | 0.0 | 0.00 | 0.00 | 0.00 | 98 | 1014.7 | |
| 20260509211050 | 51 | 0.0 | 0.0 | 0.00 | 0.00 | 0.00 | 98 | 1014.7 | |
| 20260509210103 | 51 | 0.0 | 0.0 | 0.00 | 0.00 | 0.00 | 97 | 1014.7 | |
| 20260509205040 | 52 | 0.0 | 0.9 | 0.00 | 0.00 | 0.00 | 97 | 1014.8 | |
| 20260509204037 | 52 | 0.0 | 0.0 | 0.00 | 0.00 | 0.00 | 96 | 1014.7 | |
| 20260509203034 | 52 | 0.0 | 0.0 | 0.00 | 0.00 | 0.00 | 95 | 1014.8 | |
| 20260509202031 | 51 | 0.0 | 0.9 | 0.00 | 0.00 | 0.00 | 95 | 1014.7 | |
| 20260509201028 | 51 | 0.0 | 0.9 | 0.00 | 0.00 | 0.00 | 95 | 1014.8 | |
| 20260509200025 | 52 | 0.0 | 0.0 | 0.00 | 0.00 | 0.00 | 96 | 1014.6 | |
| 20260509195022 | 51 | 0.0 | 0.0 | 0.00 | 0.00 | 0.00 | 95 | 1014.7 | |
| 20260509193015 | 52 | 0.0 | 0.0 | 0.00 | 0.00 | 0.00 | 96 | 1014.6 | |
| 20260509192112 | 52 | 0.0 | 0.0 | 0.00 | 0.00 | 0.00 | 95 | 1014.4 | |
| 20260509191149 | 53 | 0.0 | 0.0 | 0.00 | 0.00 | 0.00 | 95 | 1014.3 | |
| 20260509190106 | 54 | 0.0 | 0.0 | 0.00 | 0.00 | 0.00 | 94 | 1014.2 | |
| 20260509185103 | 55 | 0.0 | 0.9 | 0.00 | 0.00 | 0.00 | 94 | 1014.1 | |
| 20260509183056 | 57 | 0.0 | 0.0 | 0.00 | 0.00 | 0.00 | 91 | 1014.1 | |
| 20260509182053 | 58 | 0.0 | 0.0 | 0.00 | 0.00 | 0.00 | 90 | 1014.1 | |
| 20260509181050 | 59 | 0.0 | 0.0 | 0.00 | 0.00 | 0.00 | 89 | 1014.2 | |
| 20260509180107 | 61 | 0.0 | 0.0 | 0.00 | 0.00 | 0.00 | 85 | 1014.1 | |
| 20260509174040 | 66 | 0.0 | 1.7 | 0.00 | 0.00 | 0.00 | 70 | 1014.1 | |
| 20260509172034 | 69 | 0.0 | 0.9 | 0.00 | 0.00 | 0.00 | 59 | 1014.1 | |
| 20260509171030 | 70 | 0.0 | 1.7 | 0.00 | 0.00 | 0.00 | 59 | 1014.2 | |
| 20260509170028 | 70 | 0.0 | 0.0 | 0.00 | 0.00 | 0.00 | 61 | 1014.1 | |
| 20260509164041 | 70 | 0.0 | 0.0 | 0.00 | 0.00 | 0.00 | 57 | 1014.1 | |
| 20260509163018 | 70 | 270 | 0.0 | 1.7 | 0.00 | 0.00 | 0.00 | 59 | 1014.3 |